QPF
0.01 0.00 0.00 0.00 0.00 0.00 0.00 0.00 0.00 0.00 0.00 0.00 0.00 0.00 0.00 0.00 0.00 0.00 0.00 0.00 0.00 0.00 0.00 0.00 0.00 0.00 0.00 0.00 0.01 0.01 0.02 0.02 0.01 0.01 0.03 0.06 0.06 0.20 0.30 0.25 0.16 0.11 0.11
0.00 0.00 0.00 0.00 0.00 0.00 0.00 0.00 0.00 0.00 0.00 0.00 0.00 0.00 0.00 0.00 0.00 0.00 0.00 0.00 0.00 0.00 0.00 0.00 0.00 0.00 0.00 0.00 0.00 0.00 0.00 0.00 0.00 0.01 0.02 0.02 0.04 0.10 0.22 0.22 0.06 0.07 0.11
0.00 0.00 0.00 0.00 0.00 0.00 0.00 0.00 0.00 0.00 0.00 0.00 0.00 0.00 0.00 0.00 0.00 0.00 0.00 0.00 0.00 0.00 0.00 0.00 0.00 0.00 0.00 0.00 0.00 0.00 0.00 0.00 0.00 0.00 0.00 0.00 0.07 0.08 0.13 0.15 0.07 0.05 0.11
0.00 0.00 0.00 0.00 0.00 0.00 0.00 0.00 0.00 0.00 0.00 0.00 0.00 0.00 0.00 0.00 0.00 0.00 0.00 0.00 0.00 0.00 0.00 0.00 0.00 0.00 0.00 0.00 0.00 0.00 0.00 0.00 0.00 0.00 0.00 0.00 0.01 0.01 0.04 0.11 0.08 0.07 0.09
0.00 0.00 0.00 0.00 0.00 0.00 0.00 0.00 0.00 0.00 0.00 0.00 0.00 0.00 0.00 0.00 0.00 0.00 0.00 0.00 0.00 0.00 0.00 0.00 0.00 0.00 0.00 0.00 0.00 0.00 0.00 0.00 0.00 0.00 0.00 0.00 0.00 0.00 0.02 0.07 0.15 0.12 0.09
0.00 0.00 0.02 0.00 0.00 0.00 0.00 0.00 0.00 0.00 0.00 0.00 0.00 0.00 0.00 0.00 0.00 0.00 0.00 0.00 0.00 0.00 0.00 0.02 0.01 0.01 0.01 0.00 0.00 0.00 0.00 0.00 0.00 0.00 0.00 0.00 0.00 0.00 0.00 0.04 0.10 0.11 0.11
0.00 0.01 0.01 0.01 0.00 0.00 0.00 0.00 0.00 0.00 0.00 0.00 0.00 0.00 0.00 0.00 0.00 0.00 0.00 0.00 0.00 0.01 0.00 0.02 0.01 0.01 0.02 0.00 0.00 0.00 0.00 0.00 0.00 0.00 0.00 0.00 0.00 0.00 0.00 0.00 0.03 0.08 0.09
0.00 0.00 0.01 0.00 0.00 0.00 0.00 0.00 0.00 0.00 0.00 0.00 0.00 0.00 0.00 0.00 0.00 0.00 0.00 0.00 0.00 0.01 0.02 0.06 0.06 0.04 0.04 0.01 0.00 0.00 0.00 0.00 0.00 0.00 0.00 0.00 0.00 0.00 0.00 0.00 0.00 0.02 0.05
0.00 0.00 0.00 0.00 0.00 0.00 0.00 0.00 0.00 0.00 0.00 0.00 0.00 0.00 0.00 0.00 0.00 0.00 0.00 0.00 0.00 0.00 0.00 0.03 0.03 0.08 0.05 0.05 0.04 0.04 0.02 0.00 0.00 0.00 0.00 0.00 0.00 0.00 0.00 0.00 0.00 0.01 0.02
0.00 0.00 0.00 0.00 0.00 0.00 0.00 0.00 0.00 0.00 0.00 0.00 0.00 0.00 0.00 0.00 0.00 0.00 0.00 0.00 0.00 0.00 0.00 0.01 0.01 0.03 0.06 0.09 0.11 0.05 0.00 0.00 0.00 0.00 0.00 0.00 0.00 0.00 0.00 0.00 0.00 0.00 0.00
0.00 0.00 0.00 0.00 0.00 0.00 0.00 0.00 0.00 0.00 0.00 0.00 0.00 0.00 0.00 0.00 0.00 0.00 0.00 0.00 0.00 0.00 0.00 0.00 0.00 0.03 0.12 0.15 0.06 0.06 0.02 0.00 0.00 0.00 0.00 0.00 0.01 0.00 0.00 0.01 0.01 0.00 0.00
0.00 0.00 0.00 0.00 0.00 0.00 0.00 0.00 0.00 0.00 0.00 0.00 0.00 0.00 0.00 0.00 0.00 0.00 0.00 0.00 0.00 0.00 0.00 0.00 0.00 0.03 0.09 0.08 0.09 0.03 0.01 0.00 0.00 0.00 0.00 0.00 0.01 0.04 0.03 0.05 0.06 0.03 0.00
0.00 0.00 0.00 0.00 0.00 0.00 0.01 0.00 0.00 0.00 0.00 0.00 0.00 0.00 0.00 0.00 0.00 0.00 0.00 0.00 0.00 0.00 0.00 0.00 0.00 0.01 0.01 0.01 0.01 0.01 0.01 0.00 0.00 0.00 0.00 0.01 0.01 0.05 0.08 0.06 0.03 0.02 0.02
0.00 0.00 0.00 0.00 0.00 0.01 0.04 0.01 0.00 0.00 0.00 0.00 0.00 0.00 0.00 0.00 0.00 0.00 0.00 0.00 0.00 0.00 0.00 0.00 0.01 0.01 0.03 0.01 0.00 0.00 0.00 0.00 0.00 0.00 0.00 0.00 0.00 0.00 0.01 0.00 0.00 0.00 0.02
0.00 0.00 0.00 0.00 0.00 0.03 0.05 0.02 0.00 0.00 0.00 0.00 0.00 0.00 0.00 0.00 0.00 0.00 0.00 0.00 0.00 0.00 0.00 0.00 0.01 0.01 0.03 0.01 0.00 0.00 0.00 0.00 0.00 0.00 0.00 0.00 0.00 0.00 0.00 0.00 0.00 0.00 0.00
0.00 0.00 0.00 0.00 0.00 0.01 0.03 0.02 0.01 0.00 0.00 0.00 0.00 0.00 0.00 0.00 0.00 0.00 0.00 0.00 0.00 0.00 0.00 0.00 0.01 0.01 0.02 0.01 0.00 0.00 0.00 0.00 0.00 0.00 0.00 0.00 0.00 0.00 0.00 0.00 0.00 0.00 0.00
0.00 0.00 0.00 0.00 0.00 0.00 0.02 0.03 0.03 0.01 0.00 0.00 0.00 0.00 0.00 0.00 0.00 0.00 0.00 0.00 0.00 0.00 0.00 0.00 0.00 0.01 0.01 0.00 0.00 0.00 0.00 0.00 0.00 0.00 0.00 0.00 0.00 0.00 0.00 0.00 0.00 0.00 0.00
0.00 0.00 0.00 0.00 0.00 0.00 0.00 0.04 0.04 0.01 0.03 0.01 0.00 0.00 0.00 0.00 0.00 0.00 0.00 0.00 0.00 0.00 0.00 0.00 0.00 0.00 0.01 0.00 0.00 0.00 0.00 0.00 0.00 0.00 0.00 0.00 0.00 0.00 0.00 0.00 0.00 0.00 0.00
0.00 0.00 0.00 0.00 0.00 0.00 0.00 0.01 0.05 0.03 0.05 0.02 0.00 0.00 0.00 0.00 0.00 0.00 0.00 0.00 0.00 0.00 0.00 0.00 0.00 0.00 0.01 0.00 0.00 0.00 0.00 0.00 0.00 0.00 0.00 0.00 0.00 0.00 0.00 0.00 0.00 0.00 0.00
0.00 0.00 0.00 0.00 0.00 0.00 0.00 0.00 0.03 0.03 0.08 0.04 0.01 0.00 0.00 0.00 0.00 0.00 0.00 0.00 0.00 0.00 0.00 0.00 0.00 0.00 0.00 0.00 0.00 0.00 0.00 0.00 0.00 0.00 0.00 0.00 0.00 0.00 0.00 0.01 0.00 0.00 0.00
0.00 0.00 0.00 0.00 0.00 0.00 0.00 0.00 0.00 0.04 0.15 0.10 0.02 0.00 0.00 0.00 0.00 0.00 0.00 0.00 0.00 0.00 0.00 0.00 0.00 0.00 0.00 0.00 0.00 0.00 0.00 0.00 0.00 0.00 0.00 0.00 0.00 0.00 0.00 0.00 0.00 0.00 0.00
0.00 0.00 0.00 0.00 0.00 0.00 0.00 0.00 0.00 0.06 0.19 0.12 0.02 0.00 0.00 0.00 0.00 0.00 0.00 0.00 0.00 0.00 0.00 0.00 0.00 0.00 0.00 0.00 0.00 0.00 0.00 0.00 0.00 0.00 0.00 0.00 0.00 0.00 0.00 0.00 0.00 0.00 0.00
0.00 0.00 0.00 0.00 0.00 0.03 0.02 0.03 0.08 0.10 0.18 0.13 0.02 0.00 0.00 0.00 0.00 0.00 0.00 0.00 0.00 0.00 0.00 0.00 0.00 0.00 0.00 0.00 0.00 0.00 0.00 0.00 0.00 0.00 0.00 0.00 0.00 0.00 0.00 0.00 0.00 0.00 0.00
0.00 0.02 0.01 0.02 0.11 0.20 0.25 0.30 0.16 0.11 0.21 0.14 0.01 0.00 0.00 0.00 0.00 0.00 0.00 0.00 0.00 0.00 0.00 0.00 0.00 0.00 0.00 0.00 0.00 0.00 0.00 0.00 0.00 0.00 0.00 0.00 0.00 0.00 0.00 0.00 0.00 0.00 0.00
0.01 0.02 0.05 0.16 0.33 0.32 0.42 0.24 0.16 0.13 0.04 0.05 0.00 0.00 0.00 0.01 0.00 0.00 0.00 0.00 0.00 0.00 0.00 0.00 0.00 0.00 0.00 0.00 0.00 0.00 0.00 0.00 0.00 0.00 0.00 0.00 0.00 0.00 0.00 0.00 0.00 0.00 0.00
0.01 0.02 0.05 0.13 0.27 0.32 0.41 0.22 0.23 0.09 0.01 0.01 0.00 0.00 0.00 0.01 0.00 0.00 0.00 0.00 0.00 0.00 0.00 0.00 0.00 0.00 0.00 0.00 0.00 0.00 0.00 0.00 0.00 0.00 0.00 0.00 0.00 0.00 0.00 0.00 0.00 0.00 0.00
MSLP
1016.28 1016.17 1015.88 1015.80 1015.64 1015.32 1015.04 1014.94 1014.78 1014.70 1014.70 1014.67 1014.76 1014.86 1015.29 1014.91 1014.92 1015.16 1015.33 1016.09 1016.18 1016.32 1016.51 1016.58 1016.60 1016.67 1016.73 1016.76 1016.80 1016.88 1016.99 1017.14 1017.17 1017.07 1016.99 1017.02 1017.25 1017.70 1018.28 1018.63 1019.20 1019.16 1019.57
1016.18 1015.90 1015.85 1015.64 1015.43 1015.22 1015.17 1014.98 1014.80 1014.78 1014.59 1014.57 1014.80 1014.76 1014.80 1014.87 1015.06 1015.46 1015.24 1015.75 1016.46 1016.46 1016.69 1016.78 1016.91 1016.99 1017.00 1016.97 1017.00 1017.11 1017.14 1017.21 1017.25 1017.27 1017.18 1017.18 1017.10 1017.35 1017.89 1018.06 1018.62 1018.86 1019.63
1016.15 1016.07 1015.86 1015.73 1015.31 1015.11 1014.98 1014.77 1014.70 1014.62 1014.56 1014.50 1014.70 1014.66 1014.74 1015.01 1015.13 1015.46 1015.43 1015.56 1016.25 1016.72 1016.67 1016.90 1017.16 1017.21 1017.30 1017.30 1017.37 1017.45 1017.54 1017.52 1017.46 1017.45 1017.42 1017.44 1017.46 1017.50 1017.46 1018.05 1018.11 1018.96 1019.64
1016.09 1016.14 1015.85 1015.71 1015.45 1015.13 1014.91 1014.80 1014.84 1014.71 1014.51 1014.52 1014.58 1014.68 1014.72 1014.90 1015.10 1015.43 1015.86 1015.92 1015.87 1016.10 1016.74 1016.99 1017.17 1017.42 1017.42 1017.58 1017.76 1017.76 1017.80 1017.85 1017.81 1017.72 1017.62 1017.60 1017.57 1017.58 1017.61 1018.06 1018.72 1019.40 1019.44
1015.95 1016.04 1015.76 1015.60 1015.51 1015.05 1015.03 1014.94 1015.00 1015.03 1014.77 1014.70 1014.56 1014.58 1014.75 1014.91 1015.11 1015.10 1015.52 1015.69 1016.06 1016.39 1016.30 1016.86 1017.52 1017.64 1017.36 1017.66 1017.80 1017.97 1018.02 1018.02 1018.06 1017.96 1017.80 1017.72 1017.68 1017.80 1017.83 1018.00 1018.46 1018.62 1018.73
1015.89 1015.95 1015.64 1015.55 1015.38 1015.20 1015.14 1015.08 1015.24 1015.31 1015.22 1015.12 1014.66 1014.33 1014.70 1014.89 1014.99 1015.14 1015.34 1015.83 1016.15 1016.02 1016.40 1016.76 1017.14 1016.64 1017.26 1017.74 1017.92 1018.05 1018.06 1018.11 1018.00 1018.06 1018.09 1017.98 1017.74 1017.80 1017.99 1017.99 1018.04 1017.85 1018.69
1015.77 1015.80 1015.41 1015.45 1015.34 1015.41 1015.51 1015.48 1015.26 1015.34 1015.32 1015.35 1014.84 1014.39 1014.44 1014.68 1014.83 1014.90 1015.03 1015.18 1015.29 1015.76 1016.32 1016.72 1016.50 1016.86 1017.47 1017.57 1017.93 1017.95 1017.87 1018.02 1017.93 1018.06 1018.01 1018.03 1017.96 1017.69 1017.98 1018.07 1017.95 1017.98 1018.55
1015.74 1015.64 1015.58 1015.40 1015.49 1015.41 1015.57 1015.54 1015.58 1015.37 1015.50 1015.75 1015.14 1014.69 1014.03 1014.37 1014.79 1014.82 1015.00 1015.16 1015.24 1015.48 1016.23 1016.42 1016.50 1016.95 1017.07 1017.13 1017.76 1018.10 1017.92 1017.89 1017.89 1018.13 1017.80 1017.83 1017.94 1017.83 1017.78 1018.07 1018.14 1018.09 1018.56
1015.55 1015.51 1015.41 1015.35 1015.44 1015.43 1015.35 1015.57 1015.66 1015.67 1015.38 1015.69 1015.90 1015.48 1014.79 1014.58 1014.81 1014.90 1015.27 1015.29 1015.49 1015.72 1015.91 1016.28 1016.39 1017.15 1017.27 1017.82 1018.25 1018.34 1018.04 1018.25 1018.03 1018.03 1017.99 1017.61 1017.68 1017.76 1017.63 1017.74 1018.05 1018.32 1018.47
1015.25 1015.21 1015.25 1015.33 1015.35 1015.35 1015.53 1015.71 1015.91 1015.93 1015.82 1015.63 1015.76 1015.96 1016.23 1016.06 1015.32 1014.86 1015.40 1015.73 1015.89 1016.04 1016.10 1015.83 1016.42 1017.20 1017.55 1018.10 1017.96 1018.26 1017.89 1018.14 1018.22 1018.26 1018.14 1017.79 1017.58 1017.34 1017.34 1017.46 1017.52 1017.78 1018.16
1015.23 1015.14 1015.02 1015.09 1015.23 1015.14 1015.39 1015.56 1015.87 1016.11 1015.96 1015.81 1015.76 1015.80 1016.10 1015.99 1016.12 1015.74 1015.08 1015.27 1015.77 1016.18 1016.19 1016.50 1017.18 1017.58 1018.12 1018.16 1018.36 1018.22 1018.47 1018.55 1018.76 1018.78 1018.17 1017.82 1017.45 1017.09 1016.95 1017.07 1017.14 1017.25 1017.46
1015.21 1015.20 1015.05 1014.93 1014.95 1015.14 1015.23 1015.33 1015.70 1016.01 1016.07 1016.12 1016.05 1015.97 1015.91 1015.84 1015.82 1015.86 1015.58 1015.42 1015.75 1016.29 1016.59 1017.35 1017.77 1018.11 1018.37 1018.41 1018.25 1018.44 1018.56 1018.68 1018.70 1018.27 1017.80 1017.63 1017.34 1017.08 1016.75 1016.76 1016.95 1017.03 1017.10
1015.09 1015.15 1015.18 1015.08 1014.98 1015.15 1015.08 1015.19 1015.60 1015.88 1015.95 1016.04 1016.29 1016.11 1016.03 1016.04 1016.28 1016.12 1015.89 1015.57 1015.66 1016.24 1016.51 1017.65 1017.98 1018.07 1018.27 1018.48 1018.41 1018.41 1018.58 1018.53 1018.37 1018.07 1017.86 1017.61 1017.46 1017.14 1016.78 1016.82 1016.95 1016.98 1016.86
1015.20 1015.21 1015.03 1014.72 1014.78 1014.81 1014.98 1015.11 1015.52 1015.80 1016.05 1016.24 1016.40 1016.38 1016.04 1016.19 1016.25 1016.22 1016.03 1015.68 1015.28 1015.81 1016.34 1017.43 1018.27 1018.51 1018.55 1018.70 1018.69 1018.44 1017.95 1018.27 1018.28 1018.07 1017.90 1017.74 1017.49 1017.13 1016.90 1017.00 1017.01 1017.11 1017.02
1015.18 1015.12 1014.92 1014.75 1014.71 1014.81 1015.08 1015.37 1015.64 1015.88 1016.17 1016.43 1016.47 1016.31 1016.14 1016.17 1016.30 1016.26 1016.28 1016.00 1015.74 1015.30 1015.79 1017.49 1018.18 1018.70 1018.86 1018.75 1018.68 1018.43 1018.10 1018.31 1018.01 1017.98 1017.83 1017.69 1017.44 1017.19 1017.00 1016.99 1017.02 1017.12 1017.21
1015.15 1015.04 1014.97 1014.70 1014.70 1014.76 1014.84 1015.19 1015.54 1015.79 1016.07 1016.35 1016.51 1016.42 1016.33 1016.22 1016.30 1016.33 1016.22 1016.07 1015.95 1015.73 1015.79 1017.31 1018.16 1018.77 1018.87 1018.85 1018.70 1018.25 1018.06 1018.25 1018.21 1018.07 1017.89 1017.70 1017.42 1017.16 1016.97 1016.90 1016.89 1016.99 1017.08
1014.81 1014.80 1014.79 1014.74 1014.64 1014.54 1014.57 1014.85 1015.09 1015.41 1015.85 1016.28 1016.55 1016.26 1016.18 1016.46 1016.32 1016.43 1016.39 1016.19 1016.03 1015.99 1015.88 1018.02 1018.48 1018.96 1019.09 1018.99 1018.64 1018.47 1018.09 1017.68 1017.47 1018.00 1017.79 1017.62 1017.33 1017.04 1016.85 1016.70 1016.70 1016.80 1016.95
1014.29 1014.37 1014.39 1014.27 1014.24 1014.18 1014.27 1014.49 1014.72 1015.12 1015.69 1015.94 1016.12 1016.21 1016.24 1016.27 1016.41 1016.63 1016.35 1016.47 1016.30 1016.33 1016.12 1017.46 1018.66 1018.77 1018.85 1019.01 1018.82 1018.51 1018.07 1017.70 1017.74 1017.93 1017.86 1017.56 1017.27 1017.01 1016.69 1016.44 1016.38 1016.39 1016.73
1013.58 1013.52 1013.62 1013.70 1013.65 1013.73 1013.92 1014.24 1014.46 1014.69 1015.43 1015.55 1015.89 1015.97 1016.20 1016.37 1016.26 1016.43 1016.61 1016.32 1016.35 1016.44 1016.44 1016.82 1018.27 1018.61 1018.85 1018.82 1018.73 1018.49 1018.21 1017.89 1018.06 1018.01 1017.75 1017.47 1017.20 1016.81 1016.33 1015.93 1015.68 1015.53 1015.91
1012.81 1012.86 1012.65 1012.79 1013.07 1013.31 1013.50 1013.76 1014.13 1014.48 1014.78 1015.11 1015.68 1015.86 1016.19 1016.17 1016.36 1016.37 1016.73 1016.77 1016.76 1016.76 1016.96 1017.07 1017.72 1018.01 1018.53 1018.82 1018.59 1018.28 1017.67 1017.61 1017.99 1018.09 1017.75 1017.37 1016.98 1016.41 1015.72 1015.00 1014.29 1013.97 1014.53
1011.90 1011.97 1011.98 1012.17 1012.55 1012.64 1012.87 1013.07 1013.29 1013.99 1014.38 1014.64 1015.51 1015.61 1015.90 1016.39 1016.51 1016.44 1016.59 1017.08 1017.05 1017.01 1016.97 1017.18 1017.52 1017.87 1018.27 1018.23 1018.08 1018.16 1017.67 1017.50 1018.27 1018.55 1018.03 1017.22 1016.47 1015.69 1014.81 1013.61 1012.79 1012.71 1013.33
1011.50 1011.47 1011.52 1011.60 1012.00 1012.07 1011.95 1012.30 1012.68 1013.01 1014.19 1014.31 1015.20 1015.53 1015.86 1016.59 1016.75 1016.80 1017.07 1017.63 1017.55 1017.38 1017.40 1017.24 1017.34 1017.68 1018.23 1018.30 1018.25 1017.95 1017.81 1017.74 1018.55 1018.46 1018.34 1017.24 1016.36 1015.63 1014.46 1013.32 1012.58 1012.33 1013.12
1011.47 1011.20 1011.19 1011.39 1011.74 1011.99 1011.85 1012.06 1012.27 1012.53 1013.49 1013.87 1014.41 1015.06 1015.50 1016.28 1016.73 1017.06 1017.51 1017.79 1018.19 1018.09 1017.92 1017.72 1017.75 1017.83 1018.16 1018.40 1018.41 1018.29 1018.38 1018.47 1018.97 1019.13 1018.62 1017.59 1016.75 1015.92 1015.13 1014.01 1012.59 1012.78 1013.64
1011.03 1010.69 1010.81 1011.04 1011.74 1012.35 1012.24 1012.64 1012.44 1012.44 1013.24 1013.61 1014.01 1014.64 1015.10 1016.19 1016.65 1016.90 1017.24 1017.67 1018.04 1018.48 1018.33 1017.86 1018.11 1018.37 1018.37 1018.57 1018.70 1018.85 1018.94 1018.80 1018.81 1019.02 1018.94 1018.14 1017.35 1016.77 1016.14 1015.24 1014.40 1014.26 1014.82
1010.85 1010.99 1011.31 1010.82 1010.45 1010.78 1010.49 1011.77 1012.61 1011.93 1012.79 1013.10 1013.83 1014.25 1014.82 1015.75 1016.57 1016.82 1017.09 1017.52 1018.14 1018.65 1019.32 1019.06 1019.03 1019.24 1019.42 1019.30 1019.02 1018.65 1018.49 1018.05 1018.60 1019.12 1019.08 1018.86 1018.32 1017.80 1017.22 1016.71 1016.46 1016.15 1016.49
1010.47 1010.59 1010.81 1010.61 1010.77 1010.41 1008.63 1011.21 1013.39 1012.44 1012.19 1012.88 1013.71 1014.26 1014.90 1015.53 1016.33 1016.68 1016.94 1017.41 1017.52 1018.26 1018.84 1019.17 1019.23 1019.34 1019.48 1019.77 1019.68 1019.00 1018.58 1018.29 1018.49 1019.07 1019.26 1019.17 1018.75 1018.63 1018.18 1018.46 1017.99 1018.05 1018.32
Thickness
5786 5785 5786 5785 5785 5787 5789 5788 5789 5789 5788 5788 5786 5782 5779 5778 5775 5770 5765 5756 5750 5744 5737 5732 5728 5724 5719 5717 5714 5714 5712 5710 5709 5711 5712 5711 5710 5706 5703 5703 5700 5707 5707
5788 5789 5788 5788 5788 5789 5787 5789 5790 5790 5789 5788 5785 5783 5780 5777 5772 5765 5763 5754 5745 5740 5732 5726 5720 5715 5712 5709 5709 5707 5706 5704 5703 5703 5704 5704 5706 5703 5700 5704 5697 5704 5701
5790 5790 5789 5790 5791 5792 5792 5792 5792 5790 5791 5790 5787 5783 5780 5774 5769 5763 5759 5755 5745 5735 5729 5721 5712 5707 5702 5701 5699 5695 5693 5693 5693 5693 5694 5695 5697 5697 5698 5695 5693 5699 5697
5791 5789 5790 5791 5792 5793 5794 5794 5793 5791 5792 5790 5787 5784 5781 5775 5769 5762 5755 5749 5743 5735 5724 5715 5706 5699 5692 5688 5683 5680 5679 5680 5681 5683 5684 5685 5686 5688 5690 5688 5686 5683 5689
5792 5791 5791 5792 5792 5794 5794 5795 5793 5791 5789 5788 5787 5785 5780 5774 5768 5762 5755 5748 5738 5728 5720 5707 5693 5686 5685 5677 5670 5664 5663 5664 5665 5668 5672 5675 5677 5678 5680 5683 5684 5687 5691
5793 5792 5794 5794 5794 5795 5795 5795 5791 5790 5787 5785 5785 5784 5779 5773 5768 5760 5754 5743 5734 5727 5714 5701 5689 5688 5675 5664 5658 5656 5653 5650 5652 5655 5657 5661 5667 5670 5670 5674 5681 5687 5685
5793 5793 5795 5795 5794 5795 5793 5792 5792 5787 5785 5783 5781 5781 5777 5773 5766 5761 5752 5745 5737 5723 5709 5695 5687 5676 5662 5656 5649 5646 5644 5641 5643 5644 5646 5648 5653 5659 5661 5663 5669 5678 5678
5794 5795 5795 5796 5794 5795 5792 5791 5788 5785 5782 5778 5775 5773 5769 5767 5762 5759 5752 5743 5734 5720 5703 5693 5682 5666 5658 5650 5640 5633 5632 5633 5633 5630 5638 5640 5640 5646 5651 5655 5658 5669 5671
5797 5796 5796 5797 5796 5795 5793 5789 5786 5782 5779 5775 5771 5766 5762 5755 5754 5753 5744 5738 5728 5715 5700 5686 5671 5654 5645 5635 5624 5618 5620 5622 5624 5622 5623 5630 5632 5634 5642 5649 5651 5659 5665
5800 5799 5798 5796 5796 5796 5792 5788 5784 5779 5776 5770 5768 5763 5755 5750 5744 5741 5738 5729 5721 5709 5694 5686 5665 5647 5634 5622 5615 5607 5618 5611 5608 5605 5607 5613 5619 5626 5633 5640 5650 5656 5661
5801 5800 5800 5798 5796 5796 5792 5788 5782 5776 5774 5770 5765 5760 5752 5748 5739 5733 5730 5725 5716 5703 5691 5676 5652 5637 5621 5612 5607 5604 5598 5594 5590 5587 5593 5598 5606 5617 5627 5635 5644 5654 5661
5801 5799 5799 5799 5797 5795 5791 5789 5783 5776 5773 5768 5764 5758 5752 5745 5738 5730 5724 5720 5708 5696 5685 5665 5645 5626 5614 5606 5601 5596 5591 5585 5581 5583 5588 5592 5601 5610 5622 5632 5639 5649 5658
5800 5799 5797 5796 5796 5792 5790 5788 5783 5777 5773 5767 5759 5754 5752 5745 5735 5729 5721 5716 5707 5694 5682 5658 5640 5623 5612 5602 5595 5591 5584 5580 5579 5581 5584 5589 5597 5607 5619 5628 5637 5647 5657
5798 5798 5797 5797 5795 5793 5789 5786 5782 5776 5771 5764 5756 5751 5750 5743 5735 5728 5720 5713 5707 5695 5680 5656 5634 5618 5609 5601 5594 5589 5588 5582 5579 5581 5585 5590 5599 5608 5617 5626 5636 5644 5655
5798 5798 5798 5797 5795 5792 5788 5784 5778 5772 5767 5760 5753 5750 5746 5741 5734 5728 5719 5712 5703 5693 5680 5654 5633 5617 5607 5601 5598 5593 5589 5585 5585 5585 5589 5594 5602 5610 5619 5628 5636 5643 5651
5797 5798 5797 5799 5796 5792 5790 5784 5777 5772 5765 5758 5751 5746 5742 5739 5732 5726 5719 5712 5704 5695 5681 5658 5635 5618 5607 5601 5598 5596 5593 5589 5587 5589 5593 5599 5607 5615 5624 5631 5639 5647 5654
5797 5797 5797 5796 5795 5794 5792 5785 5780 5773 5763 5755 5749 5747 5743 5736 5731 5723 5717 5710 5703 5694 5683 5652 5636 5619 5609 5604 5601 5596 5595 5596 5597 5595 5599 5605 5613 5622 5630 5637 5643 5650 5656
5798 5797 5797 5798 5797 5796 5794 5788 5781 5774 5764 5756 5752 5746 5741 5737 5727 5721 5717 5707 5701 5692 5684 5660 5639 5627 5616 5606 5603 5603 5604 5604 5603 5602 5606 5612 5619 5626 5634 5642 5648 5654 5658
5800 5800 5800 5799 5798 5797 5794 5790 5784 5778 5767 5761 5754 5748 5741 5734 5728 5722 5714 5710 5703 5694 5685 5673 5649 5636 5623 5616 5609 5608 5608 5610 5608 5610 5614 5619 5625 5632 5640 5649 5655 5661 5664
5802 5802 5805 5804 5801 5799 5796 5792 5787 5779 5772 5764 5755 5749 5742 5737 5729 5725 5715 5708 5702 5694 5683 5676 5661 5649 5635 5625 5619 5616 5619 5619 5615 5615 5620 5625 5632 5640 5650 5659 5668 5676 5680
5807 5807 5807 5804 5800 5801 5799 5794 5792 5783 5773 5767 5756 5751 5745 5737 5730 5726 5719 5708 5702 5696 5689 5679 5668 5658 5646 5639 5633 5627 5627 5627 5620 5619 5625 5633 5642 5652 5663 5677 5688 5694 5698
5805 5805 5804 5804 5800 5802 5804 5798 5793 5789 5774 5768 5755 5750 5745 5736 5730 5723 5715 5704 5700 5697 5689 5683 5675 5665 5654 5648 5643 5641 5639 5636 5628 5627 5629 5639 5648 5659 5672 5685 5698 5707 5708
5799 5800 5801 5801 5800 5799 5798 5794 5791 5789 5776 5770 5762 5754 5748 5741 5732 5723 5712 5704 5696 5693 5690 5685 5678 5671 5661 5656 5650 5646 5644 5640 5634 5633 5634 5644 5652 5664 5674 5688 5707 5711 5710
5789 5796 5796 5795 5791 5788 5789 5783 5783 5785 5777 5770 5765 5757 5751 5741 5734 5726 5717 5707 5699 5692 5690 5689 5682 5673 5668 5661 5656 5651 5646 5647 5647 5643 5642 5650 5655 5663 5672 5685 5697 5703 5705
5787 5787 5784 5788 5794 5792 5795 5777 5775 5784 5774 5771 5765 5760 5753 5745 5735 5729 5721 5711 5700 5693 5683 5683 5681 5674 5668 5663 5659 5660 5657 5659 5654 5650 5648 5650 5654 5661 5669 5679 5686 5694 5697
5785 5784 5782 5783 5781 5786 5799 5747 5750 5771 5771 5766 5761 5757 5750 5746 5736 5731 5726 5714 5709 5697 5688 5682 5681 5677 5670 5665 5661 5662 5663 5662 5659 5652 5653 5654 5656 5659 5668 5668 5677 5681 5682